Flag for Isle of Man Weather past 2 weeks in Ramsey, Isle of Man

Now
52 °F

Passing clouds.


Feels Like: 51 °F
Forecast: 44 / 54 °F
Wind: 5 mph from South

Location: Isle Of Man / Ronaldsway Airport

Current Time: Apr 21, 2015 at 11:03:02 AM

Latest Report: Apr 21, 2015 at 10:20 AM


Visibility: N/A

Pressure: 30.63 "Hg

Humidity: 67%

Dew point: 41 °F

Location of RamseyLocation

Historic Weather in Ramsey — Graph

°F

Ramsey temperature yesterday

Maximum temperature yesterday: 54 °F (at 6:20 PM)
Minimum temperature yesterday: 41 °F (at 6:20 AM)
Average temperature yesterday: 48 °F

Past Weeks' High & Low Weather Summary

 TemperatureHumidityPressure
High57 °F (Apr 7, 1:20 PM)100% (Apr 6, 9:20 AM)30.63 "Hg (Apr 6, 9:20 AM)
Low36 °F (Apr 13, 3:50 AM)50% (Apr 19, 11:20 AM)29.68 "Hg (Apr 10, 11:50 PM)
Average47 °F79%30.24 "Hg
* Reported Apr 6 9:20 AM — Apr 21 9:50 AM, Ramsey, Weather by CustomWeather, © 2015

Note: Actual official high and low records may vary slightly from our data, if they occured in-between our weather recording intervals... More about our weather records

Advertising

Ramsey weather history for previous 24 hours

 ConditionsComfort  
Time TempWeatherWind HumidityBarometerVisibility
9:50 AM
Tue, Apr 21
52 °FSunny.3 mph62%30.63 "Hg10 mi
9:20 AM52 °FSunny.3 mph72%30.63 "Hg10 mi
8:50 AM50 °FSunny.3 mph71%30.60 "Hg10 mi
8:20 AM50 °FSunny.3 mph71%30.60 "Hg10 mi
7:50 AM48 °FSunny.5 mph66%30.60 "Hg10 mi
7:20 AM46 °FSunny.2 mph66%30.60 "Hg10 mi
6:50 AM45 °FClear.2 mph71%30.60 "Hg10 mi
6:20 AM43 °FClear.1 mph71%30.57 "Hg10 mi
5:50 AM43 °FClear.2 mph71%30.57 "Hg10 mi
5:20 AM41 °FClear.1 mph76%30.57 "Hg10 mi
4:50 AM43 °FClear.3 mph71%30.57 "Hg10 mi
3:50 AM41 °FClear.2 mph76%30.57 "Hg10 mi
2:50 AM45 °FPassing clouds.6 mph66%30.57 "HgN/A
1:50 AM43 °FClear.8 mph71%30.54 "Hg10 mi
12:50 AM43 °FClear.6 mph71%30.54 "Hg10 mi
11:50 PM
Mon, Apr 20
43 °FClear.6 mph76%30.57 "Hg10 mi
10:50 PM43 °FClear.2 mph81%30.54 "Hg10 mi
9:50 PM45 °FClear.6 mph76%30.54 "Hg10 mi
8:50 PM50 °FSunny.5 mph62%30.54 "Hg10 mi
8:20 PM50 °FSunny.3 mph62%30.51 "Hg10 mi
7:50 PM50 °FSunny.3 mph58%30.51 "Hg10 mi
7:20 PM52 °FSunny.1 mph54%30.51 "Hg10 mi
6:50 PM52 °FSunny.2 mph54%30.51 "Hg10 mi
6:20 PM54 °FSunny.2 mph51%30.51 "Hg10 mi
5:50 PM52 °FSunny.2 mph58%30.48 "Hg10 mi
5:20 PM52 °FPassing clouds.5 mph62%30.48 "HgN/A
4:50 PM52 °FPassing clouds.7 mph54%30.48 "HgN/A
4:20 PM50 °FPassing clouds.7 mph67%30.48 "HgN/A
3:20 PM50 °FPassing clouds.9 mph76%30.48 "HgN/A
2:50 PM50 °FPassing clouds.9 mph82%30.48 "HgN/A
2:20 PM50 °FPassing clouds.10 mph82%30.48 "HgN/A
1:50 PM50 °FPassing clouds.12 mph82%30.48 "HgN/A
1:20 PM50 °FPassing clouds.10 mph82%30.48 "HgN/A
12:50 PM50 °FPassing clouds.7 mph82%30.48 "HgN/A
12:20 PM50 °FPassing clouds.7 mph82%30.48 "HgN/A
11:50 AM50 °FPassing clouds.9 mph82%30.48 "HgN/A
11:20 AM48 °FPassing clouds.12 mph82%30.45 "HgN/A
Weather by CustomWeather, © 2015

See weather overviewHow to use our weather pages